Location: Montamat
(43.4852°N, 0.8444°E)
Time: 16:09:05
(UTC+00:00)

Cosmos 1461 - Pass Details

Date: 14 May 2026
Orbit: 422 x 475 km, 65.0° (Epoch: 10 June)

Event Time Altitude Azimuth Distance (km) Brightness Sun altitude
Rises 20:19:59 0° 195° (SSW) 2,526 6.0 -10.9°
Reaches altitude 10° 20:22:12 10° 188° (S) 1,653 4.9 -11.2°
Maximum altitude 20:25:40 39° 118° (ESE) 728 3.0 -11.7°
Drops below altitude 10° 20:29:08 10° 48° (NE) 1,656 5.2 -12.2°
Sets 20:31:21 0° 41° (NE) 2,533 6.2 -12.5°
